User: anonymous   Login
Location: Champs
(48.8539°N, 2.6040°E)
Time: 05:55:03
(UTC+00:00)
Language:

SPOT 1 Rocket Y - Orbit

View from above orbital plane
View from above orbital plane
View from above satellite
View from above satellite

Ground track
Ground track

The orbit data is extracted from the following two-line orbital elements,

1 17129U 86019Y   23342.55609562  .00000188  00000-0  96768-4 0  9993
2 17129  98.3885  21.5975 0033129  17.4405 107.6801 14.25335129875605
Epoch (UTC): 08 December 2023 13:20:46
Eccentricity: 0.0033129
inclination: 98.3885°
perigee height: 783 km
apogee height: 831 km
right ascension of ascending node: 21.5975°
argument of perigee: 17.4405°
revolutions per day: 14.25335129
mean anomaly at epoch: 107.6801°
orbit number at epoch: 87560

The dashed part of the orbit path shows where the satellite is in the earth's shadow,  

DLR